Location: Big Prairie
(40.6673°N, 82.0952°W)
Time: 02:48:16
(UTC+00:00)

Cosmos 841 Rocket - Visible Passes

Search period start: 28 June 2022 00:00
Search period end: 08 July 2022 00:00
Orbit: 747 x 771 km, 74.0° (Epoch: 27 June)

Date Brightness Start Highest point End Pass type
(mag) Time Alt. Az. Time Alt. Az. Time Alt. Az.
28 Jun 5.6 07:02:24 12° SE 07:04:59 17° E 07:08:13 10° ENE visible
28 Jun 3.8 08:42:30 17° SW 08:46:19 54° WNW 08:51:23 10° N visible
29 Jun 3.4 08:03:44 27° SSW 08:06:34 83° ESE 08:11:45 10° NNE visible
30 Jun 4.2 07:24:55 30° SSE 07:26:58 44° ESE 07:31:51 10° NNE visible
30 Jun 5.0 09:05:03 10° WSW 09:09:02 22° WNW 09:13:04 10° N visible
01 Jul 5.0 06:46:04 21° ESE 06:47:28 24° E 06:51:33 10° NE visible
01 Jul 4.2 08:26:09 21° WSW 08:29:04 38° WNW 08:33:54 10° N visible
02 Jul 5.7 06:07:12 12° ESE 06:08:06 13° E 06:10:20 10° ENE visible
02 Jul 3.5 07:47:17 37° SW 07:49:15 70° WNW 07:54:26 10° NNE visible
03 Jul 3.6 07:08:23 49° SSE 07:09:34 64° ESE 07:14:41 10° NNE visible
03 Jul 5.4 08:48:40 10° W 08:51:56 17° NW 08:55:12 10° NNW visible
04 Jul 4.4 06:29:27 33° ESE 06:30:00 34° E 06:34:38 10° NE visible
04 Jul 4.7 08:09:32 20° WSW 08:11:53 28° WNW 08:16:19 10° N visible
05 Jul 5.3 05:50:30 19° E 05:50:34 19° E 05:54:05 10° NE visible
05 Jul 3.9 07:30:34 39° WSW 07:31:59 49° WNW 07:37:00 10° N visible
06 Jul 3.3 06:51:35 70° SSW 06:52:13 90° WNW 06:57:25 10° NNE visible
06 Jul 5.7 08:32:49 10° WNW 08:34:52 12° NW 08:36:55 10° NNW visible
07 Jul 3.9 06:12:35 49° ESE 06:12:35 49° ESE 06:17:33 10° NNE visible
07 Jul 5.2 07:52:39 17° W 07:54:43 21° WNW 07:58:36 10° N visible
